Location: Escamacita
(11.1982°N, 85.8054°W)
Time: 02:27:38
(UTC+00:00)

Daily predictions for brighter satellites

Satellite Brightness Start Highest point End
(mag) Time Altitude Azimuth Time Altitude Azimuth Time Altitude Azimuth
FALCON 9 R/B 1.1 00:00:56 10° SSW 00:02:58 32° SE 00:04:14 19° E
Cosmos 2058 4.4 00:01:39 10° NE 00:04:14 16° E 00:06:50 10° ESE
Meteor 2-15 4.5 00:00:25 10° S 00:06:35 88° W 00:12:43 10° N
Cosmos 1315 Rocket 2.7 00:04:48 10° S 00:08:42 90° ENE 00:12:37 10° N
Hubble Space Telescope 1.0 00:05:44 10° NW 00:09:45 51° NNE 00:12:18 20° E
SL-16 R/B 3.8 00:07:47 10° SE 00:10:27 14° ESE 00:10:27 14° ESE
SWIFT 2.5 00:12:44 10° WNW 00:16:57 59° NNE 00:19:07 26° E
CZ-2C R/B 3.6 00:15:36 20° ENE 00:17:25 24° E 00:21:36 10° SSE
Meteor 2-1 Rocket 4.5 00:15:08 10° SSW 00:20:41 71° W 00:26:09 10° N
IRS-1C Rocket 4.0 00:16:26 10° SSE 00:21:41 81° ENE 00:26:56 10° N
Cosmos 1697 Rocket 4.5 00:18:48 10° SW 00:23:41 31° WNW 00:28:36 10° N
Ariane H10+ 3.5 00:12:49 10° W 00:23:58 57° S 00:25:53 25° ESE
Cosmos 2227 Rocket 3.2 00:22:08 10° NNE 00:25:59 24° ENE 00:25:59 24° ENE
SL-08 R/B 4.3 00:24:36 10° N 00:30:42 79° E 00:36:47 10° S
Cosmos 1340 2.8 00:29:34 10° N 00:33:18 73° W 00:37:03 10° S
Cosmos 1745 Rocket 4.0 00:28:23 10° N 00:34:35 56° E 00:40:46 10° SSE
CRYOSAT 2 4.3 00:34:03 10° N 00:38:54 85° W 00:43:46 10° S
ARIANE 5 R/B 2.6 00:34:59 10° WSW 00:39:43 29° SSW 00:40:15 27° S
Cosmos 1455 4.3 00:38:01 10° SW 00:41:14 27° W 00:44:29 10° NNW
GPS 2-14 Rocket1 3.0 00:37:46 10° WNW 00:41:50 51° NNE 00:42:02 51° NNE
YAOGAN 1 2.4 00:37:48 10° SSE 00:42:05 66° ENE 00:46:21 10° N
Cosmos-2242 2.8 00:40:40 10° S 00:44:51 66° E 00:45:17 61° ENE
GPS 2-12 Rocket1 2.8 00:41:05 10° WNW 00:45:30 82° NNE 00:46:04 66° E
ARIANE 5 R/B 4.2 00:20:21 10° W 00:46:21 39° SSW 00:49:34 21° SE
Cosmos 1980 Rocket 3.4 00:41:08 10° SW 00:46:27 42° WNW 00:51:44 10° N
Cosmos 1386 Rocket 4.4 00:41:02 10° N 00:47:19 70° E 00:53:29 10° S
CSL-04 Debris 4.3 00:46:45 10° SSE 00:52:37 50° NE 00:57:14 10° N
H-10 deb 3.6 00:17:23 10° W 00:52:07 67° S 00:54:30 39° ESE
Cosmos 968 Rocket 4.5 00:49:31 10° N 00:52:13 30° NNE 00:52:13 30° NNE
Helios 1A Rocket 4.5 00:58:54 10° SSW 01:02:42 36° W 01:06:30 10° NW
Cosmos 2315 Rocket 4.3 00:57:48 10° SSW 01:03:59 67° W 01:10:08 10° N
Cosmos 2297 Rocket 2.0 01:00:48 10° NNW 01:06:28 89° ENE 01:09:32 28° SSE
CZ-2C R/B 3.5 01:01:09 10° S 01:06:55 69° WSW 01:12:41 10° NNW
Okean-O 4.4 01:11:49 10° SSW 01:15:42 30° W 01:19:35 10° NW
Cosmos 1486 Rocket 4.4 01:11:04 10° NNW 01:15:07 53° NNW 01:15:07 53° NNW
CZ-2C R/B 3.2 01:13:01 10° SW 01:14:57 25° SSW 01:14:57 25° SSW
Cosmos 2322 Rocket 3.3 01:12:48 10° S 01:15:49 32° S 01:15:49 32° S
CZ-4 R/B 3.5 01:15:20 10° SSW 01:18:39 25° W 01:21:53 10° NW
H-2A R/B 3.4 01:14:39 10° NW 01:18:40 67° NNE 01:19:45 60° ENE
Ariane H10-3 3.5 01:08:36 10° W 01:21:43 41° SSW 01:22:01 41° S
ARIANE 5 DEB (SYLDA) 4.5 01:24:44 10° WSW 01:35:11 37° SSW 01:35:21 37° S
Cosmos 2219 4.5 01:31:55 10° NW 01:37:11 38° WSW 01:42:26 10° S
ATLAS 3B CENTAUR R/B 4.4 01:30:51 10° SSW 01:35:35 30° SSE 01:35:35 30° SSE
H-2A R/B 3.6 01:32:59 10° S 01:41:22 21° NW 01:43:09 10° NNW
Hubble Space Telescope 4.0 01:47:22 10° W 01:47:40 11° W 01:47:40 11° W
SL-16 R/B 3.8 01:49:06 10° SW 01:52:24 30° WSW 01:52:24 30° WSW
GPS 2-15 Rocket1 3.7 09:39:26 57° ESE 09:39:26 57° ESE 09:43:39 10° E
FENGYUN 3A 4.4 09:39:43 10° NNE 09:44:58 51° ESE 09:50:12 10° S
Cosmos 1110 Rocket 3.9 09:48:19 63° N 09:49:09 82° ENE 09:54:20 10° SSE
H-2A R/B 3.3 09:45:11 10° SSE 09:49:26 42° ENE 09:53:18 12° N
Nadezhda 4 Rocket 3.8 09:47:49 10° S 09:53:55 74° W 10:00:00 10° N
Delta 168 3.9 09:58:11 28° NE 09:58:11 28° NE 10:00:32 10° E
ADEOS Rocket 3.2 09:53:33 10° SSE 09:59:10 61° ENE 10:04:32 10° N
Landsat 5 3.4 09:58:53 10° SSE 10:03:03 81° ENE 10:04:15 45° N
ADEOS 3.4 09:58:24 10° NNE 10:03:37 88° W 10:08:50 10° SSW
SEDSat Delta rocket 4.0 10:04:37 30° SSW 10:04:37 30° SSW 10:07:36 10° SSE
Cosmos 1356 Rocket 3.7 10:07:11 47° SSW 10:07:11 47° SSW 10:10:17 10° S
CZ-4C R/B 4.3 10:11:29 10° S 10:13:04 25° SSW 10:13:04 25° SSW
Cosmos 2180 Rocket 4.4 10:10:30 10° NNW 10:16:36 66° W 10:22:39 10° S
GPS 2-17 Rocket1 3.8 10:15:42 33° NNW 10:17:01 42° NNE 10:21:23 10° E
ALOS 2.1 10:13:40 10° N 10:18:17 65° WNW 10:22:53 10° SSW
Cosmos 1953 3.8 10:20:18 22° SW 10:20:18 22° SW 10:22:04 10° SSW
Cosmos 1892 Rocket 3.4 10:16:17 10° S 10:20:36 88° W 10:24:56 10° N
deb Chang Zheng 4 3.5 10:19:37 10° N 10:23:48 58° WNW 10:28:01 10° SSW
SJ-12 4.2 10:23:11 10° NNE 10:27:14 68° E 10:31:16 10° S
Cosmos 1484 Rocket 3.0 10:24:24 10° N 10:27:55 39° WNW 10:31:24 10° SSW
SL-19 R/B 3.7 10:25:34 10° N 10:28:34 63° WNW 10:31:56 10° SSW
ATLAS CENTAUR Rocket 2.4 10:28:09 20° NW 10:30:48 46° NNE 10:34:41 10° E
Centaur AC-116 4.3 10:20:16 15° WSW 10:32:04 55° NNW 10:35:52 10° NE
GPS 2-18 Rocket1 3.9 10:32:28 27° NW 10:33:28 32° NNW 10:36:48 10° NE
Cosmos 614 Rocket 4.0 10:28:29 10° SSW 10:33:33 54° WNW 10:38:33 10° N
Meteor 1-24 Rocket 3.9 10:29:43 10° SSW 10:34:50 43° W 10:40:07 10° NNW
Meteor PRIRODA 4.3 10:31:22 10° NNE 10:34:59 56° ESE 10:38:36 10° S
Cosmos 2082 Rocket 4.1 10:40:17 11° NW 10:40:17 11° NW 10:40:38 10° NW
Cosmos 1428 Rocket 4.4 10:32:03 10° S 10:38:19 76° W 10:44:32 10° N
Ariane H10 2.0 10:38:50 15° SSE 10:38:50 15° SSE 10:39:38 10° SE
METEOR-M 4.3 10:34:44 10° N 10:39:50 48° WNW 10:44:56 10° SSW
Delta 128 4.4 10:37:59 16° NW 10:41:11 43° NNE 10:45:41 10° E
H-II Stage 2 4.0 10:40:25 19° W 10:43:11 28° NW 10:45:37 10° NNE
NATO 3D Rocket 4.0 10:38:52 11° SW 10:43:27 57° SSE 10:49:15 10° ENE
ARIANE 5 R/B 4.1 10:43:38 10° SW 10:45:47 13° SSW 10:47:13 10° S
ERS-2 2.0 10:44:54 10° S 10:48:31 77° WSW 10:52:09 10° NNW
Cosmos 1656 3.8 10:44:21 10° NNW 10:49:54 57° WSW 10:55:24 10° S
Cosmos 2026 Rocket 4.1 10:44:38 10° SSW 10:50:46 53° W 10:56:57 10° N
Meteor 1-31 Rocket 3.7 10:49:30 10° NNW 10:52:46 26° WNW 10:56:01 10° SW
Cosmos 1023 Rocket 4.4 10:49:48 10° SSW 10:54:53 68° WNW 10:59:55 10° N
CZ-4B R/B 3.3 10:56:29 10° N 11:00:36 46° WNW 11:04:51 10° SSW
ATLAS CENTAUR R/B 2.4 10:58:03 10° WSW 11:01:32 25° WNW 11:04:51 10° N
Cosmos 1190 Rocket 4.0 10:57:06 10° SSW 11:02:17 59° WNW 11:07:26 10° N
Spot 2 4.5 11:02:36 10° NNE 11:07:27 89° E 11:12:33 10° SSW
X-37B 0.9 11:07:01 10° WSW 11:10:03 45° NW 11:13:07 10° NNE
Okean O Rocket 4.4 11:06:36 10° NE 11:10:10 24° E 11:13:44 10° SSE
PSLV R/B 4.0 11:06:07 10° NNE 11:10:11 84° E 11:14:13 10° S
CZ-4B R/B 2.0 11:08:39 10° S 11:11:52 37° W 11:15:05 10° NNW
Ariane H10-3 4.0 11:11:03 10° SW 11:12:26 14° S 11:13:41 10° SE
Cosmos 2098 Rocket 4.1 11:06:04 10° S 11:13:13 80° W 11:19:14 10° N
Cosmos 1689 Rocket 2.8 11:11:22 10° SSE 11:14:15 56° E 11:17:08 10° N
Cosmos 1697 Rocket 2.7 11:11:52 10° NNW 11:17:28 67° WSW 11:23:04 10° S
